Wind_Speed
20 19 19 15 13 9 5 3 4 6 9 12 13 13 12 9 7 7 6 6 8 10 11 12 13 14 13 13 14 14 12 12 9 10 8 7 3 3 8 13 13 11 10
22 21 23 26 28 26 25 23 15 7 3 6 9 9 8 6 3 3 1 2 1 7 9 9 8 8 9 9 6 6 6 4 9 9 7 7 5 8 10 9 10 10 11
23 26 29 29 30 35 34 33 32 30 25 21 15 8 7 8 6 6 8 4 3 1 3 4 4 4 5 6 4 5 4 7 9 7 7 11 9 8 9 7 9 11 10
26 27 26 26 27 30 33 35 35 33 34 32 28 23 15 10 7 6 5 3 6 8 8 8 8 7 6 4 6 14 13 14 9 10 12 9 11 9 10 11 11 10 8
27 29 32 28 28 28 30 31 31 32 32 31 30 28 22 16 15 15 12 12 12 12 11 8 6 3 2 6 12 13 14 16 15 12 9 10 15 12 12 11 11 12 13
23 26 29 32 29 27 29 29 29 29 27 28 28 26 24 23 24 21 19 19 18 16 12 10 10 9 7 10 13 14 17 20 19 16 15 11 15 15 14 15 15 12 12
21 23 29 31 29 31 29 28 25 25 22 22 23 23 23 22 20 19 17 15 12 11 10 11 8 9 12 13 15 15 14 18 23 22 18 15 13 19 14 10 12 13 10
22 22 25 26 27 27 28 26 24 28 26 23 22 20 18 17 15 13 11 9 10 10 8 6 10 16 21 13 9 9 13 13 16 23 24 20 16 18 16 13 12 12 12
19 20 21 22 23 23 26 23 24 28 29 27 26 25 24 22 20 16 11 8 8 7 6 8 11 18 22 14 10 9 15 19 26 23 29 23 19 17 20 15 14 13 12
22 18 16 18 21 23 21 24 24 30 31 29 26 26 24 22 21 19 16 13 11 9 7 6 9 18 21 18 16 24 24 31 38 27 27 26 20 21 19 19 16 13 16
22 18 17 18 23 20 20 23 24 25 29 30 30 28 24 23 22 19 19 17 15 14 9 9 11 17 19 19 23 24 33 33 35 31 28 29 25 22 20 15 13 16 15
25 23 20 20 21 20 20 24 24 25 27 31 32 32 28 23 22 22 23 21 18 15 10 10 11 16 21 21 25 26 29 31 34 29 27 25 25 20 17 14 14 16 19
22 24 23 20 19 20 20 23 24 24 26 29 31 33 31 32 30 25 23 23 22 19 11 8 12 17 23 22 24 27 28 30 31 26 23 23 21 17 15 15 16 19 20
22 21 22 20 19 19 20 21 22 24 26 29 30 32 31 31 34 32 29 28 26 24 16 9 13 19 23 23 24 22 26 26 26 23 20 20 17 17 15 15 18 20 21
22 19 17 18 18 19 20 20 20 23 26 28 29 31 32 31 32 33 33 30 30 29 24 13 13 17 21 24 24 24 23 23 23 22 20 18 17 18 20 20 22 21 22
23 17 15 15 16 16 19 19 20 21 24 26 27 27 32 33 32 34 33 33 32 32 29 21 12 16 18 22 25 27 24 24 23 22 24 25 25 25 24 25 25 26 24
22 18 13 11 12 14 16 17 16 20 22 25 25 26 28 31 32 32 32 33 34 34 33 29 18 12 15 18 25 27 28 27 27 27 28 29 32 33 32 32 29 25 21
17 20 15 10 8 10 13 14 15 18 19 21 23 24 26 27 29 30 31 31 33 33 34 35 30 17 11 14 18 25 28 31 31 32 32 33 33 31 29 26 25 21 16
11 16 18 13 8 6 9 10 12 16 18 18 19 21 23 26 26 28 29 30 31 33 35 35 35 32 14 12 15 19 24 25 26 25 27 27 27 26 24 23 19 13 13
7 10 15 13 9 6 4 5 6 12 15 16 18 19 21 23 25 24 26 28 30 30 33 35 36 36 29 13 15 17 20 21 20 21 22 21 21 19 20 17 12 10 7
8 9 10 13 9 6 4 2 2 5 10 13 15 16 18 20 23 23 24 26 28 28 31 32 34 37 37 24 16 19 20 18 18 21 21 18 16 14 13 10 6 4 4
12 10 7 10 11 4 4 4 5 4 4 8 9 12 14 18 20 20 22 23 25 26 29 32 33 34 36 36 18 19 19 19 18 17 13 11 9 7 5 2 3 4 6
18 14 10 9 9 10 2 5 6 5 4 3 5 8 11 14 14 16 18 20 21 23 26 29 30 33 33 36 35 18 17 14 13 11 9 9 6 3 0 2 5 9 11
19 17 12 9 7 12 6 3 5 4 5 1 1 3 8 9 13 12 14 16 18 20 23 25 27 30 32 32 36 36 19 13 8 6 4 3 3 3 5 6 7 7 10
19 18 14 11 8 7 11 2 4 8 7 4 2 2 3 7 11 10 11 12 14 17 19 21 23 25 29 30 31 32 33 31 23 17 16 15 17 18 19 19 21 21 23
23 20 17 14 8 5 8 8 3 10 10 7 5 3 1 3 6 8 8 8 10 12 15 16 18 20 23 25 26 28 29 27 25 22 22 22 23 22 19 17 16 15 15
Wind_Direction
42 48 41 39 43 39 23 330 288 273 267 261 257 254 252 250 247 250 256 252 249 245 244 245 249 250 256 257 255 257 257 259 257 255 254 246 235 129 134 135 133 151 142
45 57 68 73 68 65 66 66 66 53 348 284 263 244 230 220 186 174 183 117 213 224 231 239 253 252 250 241 243 215 211 229 248 255 234 215 196 181 154 139 145 133 126
65 77 76 67 67 67 69 67 66 65 64 66 74 102 141 146 137 112 124 88 105 174 220 227 210 210 158 122 172 199 219 235 216 222 201 191 191 175 168 162 148 129 129
81 81 64 66 67 67 70 69 65 63 64 66 72 74 84 95 99 95 126 107 101 104 111 114 123 151 162 178 208 203 232 237 226 214 218 202 183 174 151 148 146 140 125
91 79 65 70 69 70 68 68 67 66 65 68 71 74 75 83 93 92 96 92 99 100 104 109 104 101 238 248 241 260 250 238 228 206 173 185 178 173 159 154 148 142 136
93 74 64 62 66 64 61 61 61 61 62 67 70 75 76 74 76 80 91 97 90 84 86 75 46 16 329 288 267 264 254 242 225 226 198 165 173 161 160 141 142 139 132
86 73 63 58 59 55 59 61 58 59 54 57 65 67 71 78 79 83 90 92 80 65 57 47 17 345 317 310 288 268 247 230 225 211 201 180 173 162 168 140 127 137 139
79 73 64 61 56 56 58 61 61 56 56 55 59 58 60 60 58 62 73 73 63 60 60 46 9 359 352 350 333 286 251 219 190 186 174 172 155 165 179 157 139 142 131
82 73 60 62 57 56 58 57 55 56 55 56 60 60 61 61 57 52 46 37 23 359 14 24 16 9 7 10 24 79 113 138 150 157 171 149 151 153 149 142 141 128 122
75 73 63 57 48 48 55 56 54 53 57 58 56 57 58 60 60 58 51 44 27 19 27 35 18 9 14 31 73 80 104 120 124 128 144 144 156 150 147 133 134 126 124
70 72 64 53 49 47 53 60 56 54 60 61 60 57 58 58 62 65 56 40 27 20 45 66 33 22 31 55 86 82 107 117 131 124 142 138 137 142 141 141 132 128 132
57 65 60 54 48 51 56 60 57 53 54 60 60 57 58 56 59 57 53 46 39 31 58 59 42 32 47 70 97 94 112 123 137 136 147 145 152 151 145 142 126 128 132
49 57 61 59 58 58 56 61 62 55 55 57 60 58 56 57 56 54 53 47 43 43 72 71 48 45 57 76 100 104 108 124 134 146 148 148 155 152 143 142 137 136 136
37 52 56 62 62 59 60 60 66 62 59 60 63 60 58 56 55 54 52 49 50 47 62 95 61 51 59 80 92 109 115 125 131 136 149 154 151 146 149 144 139 136 131
40 39 54 60 62 60 60 59 63 62 62 60 61 60 57 55 55 55 53 52 51 51 57 86 71 60 62 75 87 96 110 125 134 142 146 147 147 143 141 143 138 129 127
40 40 41 58 63 61 57 61 64 62 61 62 60 62 54 55 56 55 53 54 51 53 55 66 83 70 68 70 83 92 100 108 120 129 131 131 129 130 132 129 123 124 126
37 43 34 40 60 67 64 60 62 55 58 60 60 62 58 53 53 54 55 53 54 54 58 62 70 88 82 80 85 91 99 104 109 117 120 120 120 120 122 124 124 126 128
34 42 40 31 30 62 70 61 63 51 53 57 59 59 59 57 54 52 53 54 55 55 56 58 60 74 104 97 95 97 100 105 105 111 113 115 118 121 122 124 126 126 118
34 38 43 36 18 39 77 66 68 59 51 55 56 59 58 55 53 51 52 54 55 55 55 58 57 57 86 124 114 111 107 108 108 111 114 119 125 125 131 130 129 121 116
2 8 28 36 25 17 34 74 63 65 51 49 55 56 56 52 49 51 51 54 55 57 57 56 56 55 56 118 140 128 122 121 119 121 120 121 127 129 134 132 129 127 116
320 328 358 31 24 18 356 339 61 37 54 51 49 50 58 53 53 51 53 53 56 58 60 55 53 54 52 62 150 142 134 125 123 131 125 122 127 127 136 134 133 101 68
292 305 324 6 17 4 332 305 299 322 33 52 51 49 56 58 52 49 52 54 57 57 59 58 57 53 54 54 86 156 144 139 138 146 144 137 138 137 126 86 15 348 342
286 289 311 323 358 4 316 291 281 293 319 65 48 49 51 68 52 49 50 56 58 59 58 60 59 57 57 59 61 112 152 146 148 147 149 151 143 152 67 335 328 332 327
268 278 291 310 316 353 359 288 267 275 281 186 76 48 56 69 55 50 53 57 58 61 61 59 62 65 63 63 67 71 110 143 137 124 118 106 70 24 359 352 4 32 54
257 265 276 290 292 341 348 311 240 232 266 225 188 221 70 57 65 50 52 55 61 64 65 64 59 66 68 66 68 72 76 83 89 92 92 90 88 85 78 76 83 76 80
258 260 264 267 271 283 347 337 269 224 240 249 229 199 226 83 76 62 62 57 56 60 68 68 67 62 69 69 67 72 76 77 79 80 80 80 80 76 79 82 75 70 69
Height
10951 10948 10945 10943 10940 10937 10934 10931 10930 10928 10926 10925 10924 10925 10926 10926 10926 10926 10925 10925 10926 10927 10927 10927 10927 10926 10926 10927 10926 10926 10927 10928 10929 10929 10930 10932 10932 10931 10931 10932 10933 10935 10936
10953 10952 10950 10948 10944 10940 10936 10932 10929 10926 10923 10921 10921 10922 10924 10925 10926 10925 10925 10925 10926 10925 10926 10926 10926 10925 10925 10924 10924 10924 10925 10926 10927 10928 10929 10930 10932 10933 10933 10934 10934 10935 10937
10957 10956 10954 10952 10947 10943 10938 10935 10932 10929 10925 10922 10921 10922 10924 10925 10926 10926 10925 10925 10925 10925 10925 10925 10924 10923 10924 10924 10923 10923 10924 10926 10928 10927 10929 10930 10932 10932 10933 10934 10935 10937 10938
10961 10961 10959 10956 10952 10948 10944 10940 10936 10933 10930 10927 10925 10924 10926 10927 10927 10927 10926 10926 10926 10926 10925 10924 10924 10924 10923 10922 10922 10922 10922 10924 10926 10928 10929 10930 10931 10933 10934 10935 10936 10938 10938
10966 10966 10964 10961 10958 10953 10949 10946 10943 10940 10937 10934 10931 10930 10931 10930 10929 10929 10929 10929 10928 10927 10926 10925 10924 10924 10921 10920 10919 10918 10919 10920 10922 10925 10927 10929 10931 10933 10935 10935 10937 10938 10939
10971 10970 10967 10965 10962 10958 10954 10952 10949 10946 10943 10940 10939 10937 10936 10934 10933 10932 10932 10931 10930 10929 10928 10927 10925 10922 10920 10917 10915 10914 10913 10914 10917 10921 10926 10929 10932 10934 10935 10936 10938 10940 10940
10975 10974 10970 10968 10966 10963 10960 10958 10957 10953 10949 10946 10943 10942 10940 10939 10938 10937 10936 10935 10934 10932 10930 10928 10926 10923 10919 10913 10910 10906 10905 10907 10911 10918 10923 10928 10931 10934 10936 10937 10939 10940 10941
10979 10978 10976 10974 10972 10969 10967 10965 10963 10959 10955 10952 10948 10945 10944 10943 10942 10941 10940 10938 10936 10933 10931 10928 10925 10921 10913 10907 10903 10899 10897 10900 10906 10912 10921 10927 10931 10935 10937 10938 10940 10941 10942
10981 10981 10981 10980 10978 10975 10972 10971 10967 10963 10959 10956 10953 10950 10948 10946 10944 10942 10941 10939 10937 10934 10931 10929 10925 10920 10912 10906 10901 10898 10895 10897 10904 10912 10920 10927 10932 10935 10937 10939 10941 10943 10944
10986 10985 10985 10984 10982 10979 10976 10974 10971 10967 10964 10961 10958 10955 10953 10950 10947 10945 10943 10941 10938 10935 10933 10930 10927 10922 10915 10908 10905 10902 10900 10902 10909 10917 10923 10928 10933 10935 10938 10940 10943 10945 10946
10990 10988 10988 10986 10984 10981 10978 10977 10975 10973 10970 10967 10963 10961 10959 10956 10952 10949 10947 10943 10939 10936 10935 10932 10930 10926 10919 10914 10910 10909 10908 10911 10915 10921 10927 10930 10933 10937 10939 10942 10945 10947 10948
10993 10990 10989 10988 10986 10985 10982 10980 10979 10978 10976 10972 10969 10967 10965 10962 10958 10954 10950 10947 10943 10939 10938 10936 10933 10929 10924 10920 10917 10915 10915 10917 10922 10926 10930 10933 10936 10939 10942 10945 10947 10948 10949
10996 10993 10991 10990 10989 10988 10987 10985 10984 10982 10980 10977 10975 10972 10971 10967 10962 10959 10955 10952 10947 10943 10942 10940 10938 10934 10929 10926 10923 10922 10921 10923 10926 10930 10934 10936 10940 10943 10945 10947 10949 10950 10951
11000 10997 10995 10994 10993 10992 10991 10990 10988 10986 10985 10982 10980 10977 10975 10972 10968 10965 10961 10956 10952 10947 10945 10945 10942 10939 10935 10931 10929 10928 10928 10930 10932 10935 10938 10940 10943 10946 10948 10950 10952 10953 10954
11003 11001 11000 10998 10997 10996 10994 10994 10993 10991 10989 10987 10985 10982 10980 10977 10974 10970 10967 10963 10958 10953 10949 10948 10947 10945 10941 10939 10935 10935 10934 10935 10937 10940 10942 10944 10946 10948 10951 10953 10955 10957 10959
11006 11005 11003 11002 11000 10999 10998 10997 10998 10996 10994 10992 10989 10986 10985 10983 10979 10975 10972 10968 10964 10959 10954 10952 10951 10950 10948 10946 10943 10941 10941 10941 10942 10944 10945 10947 10948 10951 10954 10957 10960 10962 10964
11010 11008 11006 11006 11005 11002 11002 11001 11001 11001 10998 10996 10994 10991 10989 10987 10984 10982 10979 10975 10970 10966 10961 10957 10956 10955 10954 10952 10950 10950 10948 10950 10950 10950 10951 10951 10953 10955 10958 10961 10964 10967 10968
11014 11012 11009 11009 11008 11005 11004 11004 11005 11004 11003 11001 10999 10997 10994 10991 10989 10987 10984 10981 10977 10973 10969 10965 10961 10959 10959 10958 10958 10957 10956 10956 10957 10958 10958 10959 10960 10962 10965 10968 10970 10971 10972
11016 11014 11012 11011 11010 11008 11006 11006 11006 11006 11005 11005 11003 11001 10998 10996 10993 10991 10988 10986 10982 10979 10975 10971 10967 10964 10962 10963 10963 10963 10963 10964 10964 10965 10966 10967 10968 10969 10971 10973 10975 10975 10975
11017 11016 11015 11013 11012 11011 11009 11008 11008 11009 11008 11008 11007 11005 11002 11001 10998 10996 10994 10991 10988 10985 10982 10978 10974 10970 10966 10965 10967 10968 10968 10970 10972 10972 10973 10974 10975 10977 10978 10979 10979 10979 10978
11017 11016 11016 11016 11014 11013 11012 11010 11010 11011 11010 11010 11010 11008 11007 11005 11003 11001 10998 10996 10993 10991 10987 10984 10980 10976 10972 10969 10969 10972 10972 10974 10977 10979 10980 10981 10981 10983 10983 10983 10983 10982 10981
11017 11017 11017 11017 11016 11015 11013 11012 11012 11012 11012 11012 11011 11011 11010 11009 11007 11006 11003 11001 10998 10996 10992 10989 10987 10984 10980 10975 10972 10975 10978 10980 10982 10984 10985 10985 10986 10986 10986 10986 10985 10984 10983
11016 11017 11018 11018 11017 11015 11013 11013 11014 11014 11014 11013 11013 11013 11012 11010 11011 11009 11008 11006 11003 11001 10998 10995 10992 10990 10988 10983 10979 10978 10982 10984 10986 10988 10988 10989 10989 10989 10988 10987 10987 10985 10984
11014 11015 11017 11017 11017 11016 11014 11013 11014 11015 11014 11014 11014 11014 11014 11012 11012 11012 11012 11011 11008 11005 11003 11001 10999 10997 10995 10993 10989 10985 10985 10988 10991 10991 10991 10991 10991 10991 10990 10989 10988 10986 10984
11012 11013 11015 11017 11016 11016 11015 11014 11014 11015 11016 11015 11015 11014 11014 11014 11013 11014 11014 11014 11013 11010 11008 11006 11006 11003 11000 11000 10997 10994 10994 10994 10994 10994 10994 10994 10993 10992 10992 10991 10992 10991 10989
11009 11011 11013 11015 11016 11016 11015 11014 11014 11014 11016 11016 11015 11016 11016 11015 11014 11015 11016 11016 11015 11014 11012 11011 11010 11009 11006 11004 11004 11002 11001 11001 11001 11001 10999 10998 10997 10996 10996 10996 10996 10996 10994